This demonstration page uses our WeatherBlox Daily Observations layout. Learn more.

Left ArrowRight Arrow

41.86663, -103.66717

Hourly Observations for July 20, 2018

Temp ( °F °C ) Dew Point ( °F °C ) Humidity (%) Winds ( mph kmh ) Pressure ( in mb ) Visibility ( mi km ) Precip ( " mm )
12:53 am 00:53 Clear 66 18.9 62 16.7 87 87 E 3 6 29.89 1012 10 16.0934 N/A
1:53 am 01:53 Clear 64 17.8 61 16.1 90 90 E 6 9 29.88 1012 10 16.0934 N/A
2:53 am 02:53 Clear 64 17.8 62 16.7 93 93 ENE 7 11 29.87 1012 10 16.0934 N/A
3:53 am 03:53 Clear 64 17.8 63 17.2 96 96 NE 7 11 29.86 1011 10 16.0934 N/A
4:53 am 04:53 Clear 64 17.8 63 17.2 96 96 NNE 3 6 29.85 1011 10 16.0934 N/A
5:53 am 05:53 Sunny 65 18.3 62 16.7 90 90 N N/A 29.86 1011 10 16.0934 N/A
6:53 am 06:53 Sunny 66 18.9 64 17.8 93 93 WNW 3 6 29.9 1013 10 16.0934 N/A
7:53 am 07:53 Sunny 73 22.8 65 18.3 76 76 N N/A 29.93 1014 10 16.0934 N/A
8:53 am 08:53 Sunny 76 24.4 65 18.3 69 69 ENE 5 7 29.95 1014 10 16.0934 N/A
9:53 am 09:53 Sunny 78 25.6 67 19.4 69 69 E 6 9 29.94 1014 10 16.0934 N/A
10:53 am 10:53 Sunny 82 27.8 63 17.2 53 53 E 7 11 29.93 1014 10 16.0934 N/A
11:53 am 11:53 Sunny 85 29.4 63 17.2 48 48 ESE 10 17 29.93 1014 10 16.0934 N/A
12:53 pm 12:53 Sunny 86 30 65 18.3 49 49 ESE 13 20 29.92 1013 10 16.0934 N/A
1:53 pm 13:53 Sunny 88 31.1 67 19.4 50 50 ESE 12 19 29.91 1013 10 16.0934 N/A
2:53 pm 14:53 Sunny 88 31.1 70 21.1 55 55 E 12 19 29.91 1013 10 16.0934 N/A
3:53 pm 15:53 Sunny 89 31.7 71 21.7 55 55 ESE 14 22 29.89 1012 10 16.0934 N/A
4:53 pm 16:53 Sunny 89 31.7 72 22.2 57 57 E 15 24 29.88 1012 10 16.0934 N/A
5:53 pm 17:53 Sunny 88 31.1 71 21.7 57 57 ESE 14 22 29.88 1012 10 16.0934 N/A
6:53 pm 18:53 Sunny 85 29.4 71 21.7 63 63 ESE 13 20 29.88 1012 10 16.0934 N/A
7:53 pm 19:53 Sunny 82 27.8 69 20.6 65 65 E 12 19 29.89 1012 10 16.0934 N/A
8:53 pm 20:53 Clear 78 25.6 70 21.1 76 76 ESE 10 17 29.91 1013 10 16.0934 N/A
9:53 pm 21:53 Clear 76 24.4 70 21.1 82 82 ESE 12 19 29.95 1014 10 16.0934 N/A
10:53 pm 22:53 Clear 74 23.3 71 21.7 91 91 ESE 13 20 29.93 1014 10 16.0934 N/A
11:53 pm 23:53 Clear 74 23.3 70 21.1 88 88 ESE 14 22 29.92 1013 10 16.0934 N/A

Powered by AerisWeather